Location: Killam
(52.7910°N, 111.8608°W)
Time: 11:13:34
(UTC+00:00)

Vanguard 1 Rocket - All Passes

Search period start: 16 February 2026 00:00
Search period end: 26 February 2026 00:00
Orbit: 652 x 4215 km, 34.3° (Epoch: 15 February)

Date Brightness Start Highest point End Pass type
(mag) Time Alt. Az. Time Alt. Az. Time Alt. Az.
16 Feb - 00:44:48 10° WSW 00:59:47 41° S 01:21:48 10° SE visible
16 Feb - 03:11:57 10° W 03:27:51 28° SW 03:46:51 10° SSE visible
16 Feb - 21:10:04 10° SSW 21:19:31 31° SSE 21:34:58 10° E daylight
16 Feb - 23:32:37 10° WSW 23:45:38 41° S 00:06:32 10° ESE daylight
17 Feb - 01:58:02 10° WSW 02:13:34 34° SSW 02:34:18 10° SSE visible
17 Feb - 04:29:20 10° WSW 04:40:46 16° SW 04:53:16 10° SSW visible
17 Feb - 20:00:09 10° S 20:07:20 21° SE 20:18:01 10° E daylight
17 Feb - 22:21:01 10° SW 22:32:02 38° SSE 22:50:34 10° ESE daylight
18 Feb - 00:45:06 10° WSW 00:59:16 38° SSW 01:20:19 10° SE visible
18 Feb - 03:12:48 10° W 03:26:59 23° SW 03:44:05 10° S visible
18 Feb - 18:52:39 10° SSE 18:55:47 12° SE 18:59:26 10° ESE daylight
18 Feb - 21:10:02 10° SW 21:19:07 32° SSE 21:34:15 10° ESE daylight
18 Feb - 23:32:52 10° WSW 23:45:15 39° S 00:05:16 10° SE daylight
19 Feb - 01:58:34 10° WSW 02:12:54 29° SSW 02:32:09 10° SSE visible
19 Feb - 04:33:10 10° WSW 04:39:47 12° SW 04:46:49 10° SSW visible
19 Feb - 19:59:51 10° SSW 20:06:53 23° SE 20:17:42 10° ESE daylight
19 Feb - 22:21:14 10° SW 22:31:44 37° S 22:49:32 10° ESE daylight
20 Feb - 00:45:31 10° WSW 00:58:47 34° SSW 01:18:35 10° SE visible
20 Feb - 03:14:11 10° WSW 03:26:11 19° SW 03:40:31 10° S visible
20 Feb - 18:51:15 10° SSE 18:55:16 14° SE 19:00:19 10° ESE daylight
20 Feb - 21:10:09 10° SW 21:18:49 32° SSE 21:33:28 10° ESE daylight
20 Feb - 23:33:14 10° WSW 23:44:56 36° S 00:03:51 10° SE daylight
21 Feb - 01:59:22 10° WSW 02:12:18 25° SSW 02:29:33 10° SSE visible
21 Feb - 19:59:44 10° SSW 20:06:34 24° SSE 20:17:16 10° ESE daylight
21 Feb - 22:21:32 10° WSW 22:31:30 36° S 22:48:24 10° ESE daylight
22 Feb - 00:46:05 10° WSW 00:58:23 30° SSW 01:16:33 10° SSE daylight
22 Feb - 03:16:38 10° WSW 03:25:26 14° SW 03:35:37 10° SSW visible
22 Feb - 18:50:30 10° S 18:54:53 15° SE 19:00:40 10° ESE daylight
22 Feb - 21:10:22 10° SW 21:18:38 32° SSE 21:32:36 10° ESE daylight
22 Feb - 23:33:43 10° WSW 23:44:40 33° S 00:02:14 10° SE daylight
23 Feb - 02:00:34 10° WSW 02:11:45 20° SSW 02:26:20 10° S visible
23 Feb - 19:59:46 10° SSW 20:06:21 25° SSE 20:16:45 10° ESE daylight
23 Feb - 22:21:57 10° WSW 22:31:21 33° S 22:47:08 10° SE daylight
24 Feb - 00:46:53 10° WSW 00:58:01 25° SSW 01:14:07 10° SSE daylight
24 Feb - 18:50:06 10° S 18:54:36 16° SE 19:00:43 10° ESE daylight
24 Feb - 21:10:42 10° SW 21:18:31 31° S 21:31:41 10° ESE daylight
24 Feb - 23:34:19 10° WSW 23:44:28 29° SSW 00:00:23 10° SE daylight
25 Feb - 02:02:32 10° WSW 02:11:17 16° SW 02:22:06 10° S visible
25 Feb - 19:59:57 10° SSW 20:06:14 25° SSE 20:16:10 10° ESE daylight
25 Feb - 22:22:28 10° WSW 22:31:16 30° S 22:45:44 10° SE daylight
